Weather in Baranykivka

Ukraine / Luhansk Region     49°13′37″N   38°18′17″E
temp.,
°C
wind,
m/s
gust,
m/s
humid.,
%
clouds,
%
prec.,
mm/h
press.,
hPa
HPBL,
m
15 may, sat
sat1500:00+15ssw368387 0.3 101198
03:00+14w228246 0.4 101212
06:00+15wsw2280100 0.0 101344
09:00+18w236499 0.0 1013297
12:00+23sw33455 0.0 10131179
15:00+25sw35415 0.0 10132249
18:00+23sw355379 0.0 1013229
21:00+18wnw226458 0.0 101311
16 may, sun
sun1600:00+16nnw22697 0.0 101411
03:00+15ne22731 0.0 101412
06:00+15nne347628 0.0 101481
09:00+22ene46615 0.0 1013512
12:00+25ne565511 0.0 10121217
15:00+27e665148 0.1 10101766
18:00+24e585483 0.0 1009340
21:00+19ene4868100 0.0 1009120
17 may, mon
mon1700:00+17ene4137099 0.0 1008241
03:00+16e41173100 0.0 1007200
06:00+15e5146870 0.0 1007331
09:00+21ese8125220 0.0 1007698
12:00+25se810467 0.0 10071186
15:00+26sse684897 0.0 10061446
18:00+24se5964100 0.0 1006424
21:00+20s5967100 0.0 1008279
18 may, tue
tue1800:00+17s4784100 0.0 1008215
03:00+16ssw368687 0.0 1009325
06:00+15sw4792100 0.0 1010268
09:00+18ssw3574100 0.0 1010752
12:00+22sw455634 0.1 10101555
15:00+24ssw5749100 0.8 10092308
18:00+22s4761100 0.3 1009907
21:00+18ssw41068100 0.3 1009340
19 may, wed
wed1900:00+15s5109192 1.6 1009346
03:00+14ssw4897100 2.0 1009272
06:00+14sw4796100 0.7 1011348
09:00+17sw4576100 0.9 1011834
12:00+20sw4661100 0.4 10111335
15:00+22ssw3451100 0.4 10111772
18:00+16ssw5788100 1.1 1012284
21:00+14sse1196100 4.1 101269